Printer-friendly version

IAU Minor Planet Center

Minor Planet Center

MPEC 2008-C95 : 2008 CY118

The following Minor Planet Electronic Circular may be linked-to from your own Web pages, but must not otherwise be redistributed electronically.


Read MPEC 2008-C94 Read MPEC 2008-C96


M.P.E.C. 2008-C95                                Issued 2008 Feb. 14, 18:54 UT

     The Minor Planet Electronic Circulars contain information on unusual
         minor planets and routine data on comets.  They are published
   on behalf of Commission 20 of the International Astronomical Union by the
          Minor Planet Center, Smithsonian Astrophysical Observatory,
                          Cambridge, MA 02138, U.S.A.

             Prepared using the Tamkin Foundation Computer Network

                              MPC@CFA.HARVARD.EDU
          URL http://www.cfa.harvard.edu/iau/mpc.html  ISSN 1523-6714

                                  2008 CY118

Observations:
     K08CB8Y* C2008 02 12.33154 09 40 28.74 +06 50 34.1          21.1 V EC095G96
     K08CB8Y  C2008 02 12.34008 09 40 24.60 +06 49 29.9          21.4 V EC095G96
     K08CB8Y  C2008 02 12.34850 09 40 20.53 +06 48 26.5          21.1 V EC095G96
     K08CB8Y  C2008 02 12.35689 09 40 16.53 +06 47 23.2          20.8 V EC095G96
     K08CB8Y  C2008 02 12.38902 09 40 01.05 +06 43 22.1          20.7 V EC095G96
     K08CB8Y  C2008 02 12.40015 09 39 55.69 +06 41 58.5          20.4 V EC095G96
     K08CB8Y  C2008 02 12.41144 09 39 50.32 +06 40 34.0          20.4 V EC095G96
     K08CB8Y  C2008 02 12.42262 09 39 45.03 +06 39 10.7          20.8 V EC095G96
     K08CB8Y  C2008 02 14.26543 09 27 13.93 +03 11 04.5          21.1 V EC095G96
     K08CB8Y  C2008 02 14.27222 09 27 11.23 +03 10 22.9          22.7 V EC095G96
     K08CB8Y  C2008 02 14.27905 09 27 08.60 +03 09 41.6          21.7 V EC095G96
     K08CB8Y  C2008 02 14.28579 09 27 05.94 +03 09 00.0          21.7 V EC095G96
     K08CB8Y  C2008 02 14.29393 09 27 02.80 +03 08 11.4          20.8 V EC095G96
     K08CB8Y  C2008 02 14.30071 09 27 00.10 +03 07 28.5          22.5 V EC095G96
     K08CB8Y  C2008 02 14.30737 09 26 57.51 +03 06 47.9          21.1 V EC095G96
     K08CB8Y  C2008 02 14.31401 09 26 54.96 +03 06 07.3          22.1 V EC095G96

Observer details:
G96 Mt. Lemmon Survey.  Observers R. A. Kowalski, A. D. Grauer.  Measurers
    E. C. Beshore, A. Boattini, G. J. Garradd, A. R. Gibbs, A. D. Grauer,
    R. E. Hill, R. A. Kowalski, S. M. Larson, R. H. McNaught.  1.5-m reflector
    + CCD.

Orbital elements:
2008 CY118                                               Earth MOID = 0.0762 AU
Epoch 2007 Oct. 27.0 TT = JDT 2454400.5                 MPC
M 334.79339              (2000.0)            P               Q
n   0.66181413     Peri.   94.14774     +0.52344243     -0.82028437
a   1.3041034      Node   321.28587     +0.55901831     +0.53479330
e   0.3735632      Incl.   21.62823     +0.64304475     +0.20280455
P   1.49           H   25.0           G   0.15           U   9
Residuals in seconds of arc
080212 G96  0.0   0.1-    080212 G96  0.2-  0.0     080214 G96  0.5+  1.1+
080212 G96  0.1-  0.0     080212 G96  0.0   0.4+    080214 G96  0.3-  0.3-
080212 G96  0.1-  0.0     080214 G96  0.1+  0.2-    080214 G96  0.1-  0.3-
080212 G96  0.7+  0.2-    080214 G96  0.6-  0.2-    080214 G96  0.5+  0.3-
080212 G96  0.2+  0.0     080214 G96  0.1+  0.3+
080212 G96  0.4-  0.1-    080214 G96  0.2-  0.1-

Ephemeris:
2008 CY118               a,e,i = 1.30, 0.37, 22                  q = 0.8169
Date    TT    R. A. (2000) Decl.     Delta      r     Elong.  Phase     V
2008 02 14    09 28.88   +03 39.2    0.131    1.116   169.3     9.5    21.5
2008 02 16    09 17.51   +00 29.9    0.145    1.129   164.7    13.4    21.9
2008 02 18    09 08.34   -02 03.0    0.161    1.141   160.5    16.8    22.2
2008 02 20    09 00.90   -04 07.0    0.176    1.153   156.8    19.7    22.5
2008 02 22    08 54.84   -05 47.8    0.193    1.165   153.6    22.2    22.8
2008 02 24    08 49.90   -07 10.3    0.210    1.177   150.7    24.3    23.1

Sonia Keys                   (C) Copyright 2008 MPC           M.P.E.C. 2008-C95

Read MPEC 2008-C94 Read MPEC 2008-C96


Our Web policy. Index to the CBAT/MPC/ICQ pages.


Valid HTML 4.01!